Location: Bern�tre
(50.1974°N, 2.0915°E)
Time: 08:04:10
(UTC+00:00)

KORONAS-FOTON - Pass Details

Date: 18 September 2020
Orbit: 506 x 532 km, 82.4° (Epoch: 24 October)

Event Time Altitude Azimuth Distance (km) Brightness Sun altitude
Rises 19:19:33 0° 356° (N) 2,689 7.8 -13.6°
Reaches altitude 10° 19:21:50 10° 5° (N) 1,795 6.7 -14.0°
Maximum altitude 19:25:31 37° 73° (ENE) 851 4.5 -14.5°
Enters shadow 19:26:57 27° 117° (ESE) 1,049 4.7 -14.8°
